User: anonymous   Login
Location: Baix
(44.7118°N, 4.7648°E)
Time: 05:07:53
(UTC+00:00)
Language:

IRS-1D - Orbit

View from above orbital plane
View from above orbital plane
View from above satellite
View from above satellite

Ground track
Ground track

The orbit data is extracted from the following two-line orbital elements,

1 24971U 97057A   20304.78504894  .00000016  00000-0  21122-4 0  9994
2 24971  98.5770 248.3268 0053300 169.7225 190.5058 14.34005974207922
Epoch (UTC): 30 October 2020 18:50:28
Eccentricity: 0.0053300
inclination: 98.5770°
perigee height: 740 km
apogee height: 816 km
right ascension of ascending node: 248.3268°
argument of perigee: 169.7225°
revolutions per day: 14.34005974
mean anomaly at epoch: 190.5058°
orbit number at epoch: 20792

The dashed part of the orbit path shows where the satellite is in the earth's shadow,  

DLR